| time (UTC) | temp F | wind direction | speed MPH | gust MPH | rain 1hr in | rain 24hr in | rain mn in | humidity % | barometer mb |
| 20260509082224 | 56 | 123 | 11.0 | 13.0 | 0.00 | 0.00 | 0.00 | 49 | 1011.0 |
| 20260509081721 | 56 | 115 | 11.0 | 13.0 | 0.00 | 0.00 | 0.00 | 49 | 1011.1 |
| 20260509081218 | 57 | 122 | 10.0 | 13.0 | 0.00 | 0.00 | 0.00 | 48 | 1011.1 |
| 20260509080716 | 57 | 109 | 8.0 | 13.0 | 0.00 | 0.00 | 0.00 | 48 | 1011.1 |
| 20260509080214 | 56 | 113 | 8.0 | 12.0 | 0.00 | 0.00 | 0.00 | 48 | 1010.9 |
| 20260509075712 | 57 | 125 | 9.0 | 13.0 | 0.00 | 0.00 | 0.00 | 48 | 1011.3 |
| 20260509075209 | 57 | 110 | 6.0 | 11.0 | 0.00 | 0.00 | 0.00 | 48 | 1011.1 |
| 20260509074706 | 57 | 97 | 6.0 | 9.0 | 0.00 | 0.00 | 0.00 | 48 | 1011.1 |
| 20260509074203 | 58 | 100 | 10.0 | 14.0 | 0.00 | 0.00 | 0.00 | 47 | 1011.0 |
| 20260509073659 | 58 | 113 | 11.0 | 17.0 | 0.00 | 0.00 | 0.00 | 47 | 1011.3 |
| 20260509073156 | 57 | 115 | 9.0 | 15.0 | 0.00 | 0.00 | 0.00 | 47 | 1011.3 |
| 20260509072652 | 57 | 121 | 10.0 | 17.0 | 0.00 | 0.00 | 0.00 | 47 | 1011.3 |
| 20260509072149 | 58 | 112 | 9.0 | 21.0 | 0.00 | 0.00 | 0.00 | 46 | 1011.5 |
| 20260509071646 | 58 | 91 | 11.0 | 13.0 | 0.00 | 0.00 | 0.00 | 47 | 1011.0 |
| 20260509071143 | 58 | 89 | 9.0 | 12.0 | 0.00 | 0.00 | 0.00 | 46 | 1011.1 |
| 20260509070640 | 59 | 87 | 11.0 | 15.0 | 0.00 | 0.00 | 0.00 | 46 | 1011.0 |
| 20260509070136 | 58 | 82 | 15.0 | 15.0 | 0.00 | 0.00 | 0.00 | 46 | 1010.8 |
| 20260509065632 | 58 | 71 | 11.0 | 14.0 | 0.00 | 0.00 | 0.00 | 48 | 1010.9 |
| 20260509065128 | 56 | 69 | 12.0 | 13.0 | 0.00 | 0.00 | 0.00 | 50 | 1010.9 |
| 20260509064626 | 56 | 56 | 8.0 | 13.0 | 0.00 | 0.00 | 0.00 | 49 | 1010.7 |
| 20260509064124 | 56 | 73 | 8.0 | 9.0 | 0.00 | 0.00 | 0.00 | 49 | 1011.0 |
| 20260509063620 | 56 | 80 | 6.0 | 10.0 | 0.00 | 0.00 | 0.00 | 49 | 1011.0 |
| 20260509063117 | 56 | 64 | 9.0 | 13.0 | 0.00 | 0.00 | 0.00 | 49 | 1010.5 |
| 20260509062614 | 56 | 65 | 9.0 | 13.0 | 0.00 | 0.00 | 0.00 | 48 | 1010.8 |
| 20260509062111 | 57 | 65 | 12.0 | 15.0 | 0.00 | 0.00 | 0.00 | 47 | 1010.7 |
| 20260509061608 | 57 | 64 | 9.0 | 13.0 | 0.00 | 0.00 | 0.00 | 46 | 1010.6 |
| 20260509061105 | 58 | 64 | 9.0 | 13.0 | 0.00 | 0.00 | 0.00 | 45 | 1010.6 |
| 20260509060603 | 58 | 65 | 8.0 | 12.0 | 0.00 | 0.00 | 0.00 | 45 | 1010.8 |
| 20260509060058 | 58 | 76 | 9.0 | 14.0 | 0.00 | 0.00 | 0.00 | 44 | 1011.0 |
| 20260509055554 | 57 | 87 | 6.0 | 12.0 | 0.00 | 0.00 | 0.00 | 46 | 1011.0 |
| 20260509055050 | 56 | 82 | 7.0 | 11.0 | 0.00 | 0.00 | 0.00 | 46 | 1010.8 |
| 20260509054548 | 57 | 62 | 8.0 | 8.0 | 0.00 | 0.00 | 0.00 | 46 | 1010.6 |
| 20260509054045 | 57 | 78 | 6.0 | 8.0 | 0.00 | 0.00 | 0.00 | 45 | 1010.8 |
| 20260509053543 | 57 | 94 | 5.0 | 8.0 | 0.00 | 0.00 | 0.00 | 44 | 1010.9 |
| 20260509053040 | 57 | 75 | 7.0 | 9.0 | 0.00 | 0.00 | 0.00 | 45 | 1010.8 |
| 20260509052538 | 57 | 69 | 7.0 | 9.0 | 0.00 | 0.00 | 0.00 | 44 | 1011.0 |
| 20260509052036 | 57 | 91 | 4.0 | 7.0 | 0.00 | 0.00 | 0.00 | 44 | 1011.1 |
| 20260509051533 | 55 | 91 | 4.0 | 6.0 | 0.00 | 0.00 | 0.00 | 45 | 1011.0 |
| 20260509051030 | 56 | 49 | 7.0 | 7.0 | 0.00 | 0.00 | 0.00 | 44 | 1010.8 |
| 20260509050527 | 57 | 87 | 5.0 | 7.0 | 0.00 | 0.00 | 0.00 | 43 | 1011.0 |
| 20260509050023 | 56 | 99 | 4.0 | 5.0 | 0.00 | 0.00 | 0.00 | 44 | 1011.1 |
| 20260509045521 | 57 | 66 | 6.0 | 8.0 | 0.00 | 0.00 | 0.00 | 42 | 1011.2 |
| 20260509045018 | 57 | 88 | 4.0 | 5.0 | 0.00 | 0.00 | 0.00 | 43 | 1011.1 |
| 20260509044515 | 57 | 87 | 4.0 | 6.0 | 0.00 | 0.00 | 0.00 | 42 | 1011.0 |
| 20260509044013 | 58 | 59 | 6.0 | 7.0 | 0.00 | 0.00 | 0.00 | 42 | 1011.1 |
| 20260509043508 | 58 | 75 | 4.0 | 4.0 | 0.00 | 0.00 | 0.00 | 42 | 1010.9 |
| 20260509043005 | 58 | 104 | 3.0 | 3.0 | 0.00 | 0.00 | 0.00 | 42 | 1011.0 |
| 20260509042501 | 59 | 75 | 4.0 | 5.0 | 0.00 | 0.00 | 0.00 | 42 | 1010.9 |
| 20260509041957 | 59 | 88 | 3.0 | 4.0 | 0.00 | 0.00 | 0.00 | 42 | 1011.0 |
| 20260509041454 | 59 | 68 | 5.0 | 5.0 | 0.00 | 0.00 | 0.00 | 42 | 1010.8 |
| 20260509040952 | 60 | 72 | 4.0 | 6.0 | 0.00 | 0.00 | 0.00 | 41 | 1011.0 |
| 20260509040450 | 60 | 63 | 5.0 | 6.0 | 0.00 | 0.00 | 0.00 | 41 | 1010.8 |
| 20260509035946 | 60 | 70 | 4.0 | 6.0 | 0.00 | 0.00 | 0.00 | 40 | 1010.9 |
| 20260509035443 | 60 | 56 | 6.0 | 7.0 | 0.00 | 0.00 | 0.00 | 40 | 1010.8 |
| 20260509034939 | 60 | 60 | 6.0 | 8.0 | 0.00 | 0.00 | 0.00 | 40 | 1010.8 |
| 20260509034438 | 61 | 55 | 5.0 | 6.0 | 0.00 | 0.00 | 0.00 | 39 | 1010.5 |
| 20260509033934 | 61 | 62 | 4.0 | 4.0 | 0.00 | 0.00 | 0.00 | 39 | 1010.9 |
| 20260509033431 | 61 | 76 | 4.0 | 5.0 | 0.00 | 0.00 | 0.00 | 38 | 1010.8 |
| 20260509032928 | 62 | 88 | 3.0 | 5.0 | 0.00 | 0.00 | 0.00 | 37 | 1010.7 |
| 20260509032425 | 62 | 104 | 4.0 | 7.0 | 0.00 | 0.00 | 0.00 | 37 | 1010.8 |
| 20260509031923 | 62 | 130 | 7.0 | 9.0 | 0.00 | 0.00 | 0.00 | 37 | 1010.6 |
| 20260509031420 | 63 | 75 | 4.0 | 7.0 | 0.00 | 0.00 | 0.00 | 37 | 1010.6 |
| 20260509030918 | 64 | 73 | 4.0 | 6.0 | 0.00 | 0.00 | 0.00 | 37 | 1010.2 |
| 20260509030415 | 64 | 72 | 5.0 | 7.0 | 0.00 | 0.00 | 0.00 | 37 | 1010.3 |
| 20260509025912 | 64 | 60 | 6.0 | 9.0 | 0.00 | 0.00 | 0.00 | 38 | 1010.2 |
| 20260509025408 | 63 | 53 | 7.0 | 8.0 | 0.00 | 0.00 | 0.00 | 37 | 1010.1 |
| 20260509024903 | 63 | 59 | 4.0 | 6.0 | 0.00 | 0.00 | 0.00 | 36 | 1010.1 |
| 20260509024359 | 64 | 62 | 5.0 | 6.0 | 0.00 | 0.00 | 0.00 | 35 | 1010.1 |
| 20260509023857 | 64 | 68 | 5.0 | 6.0 | 0.00 | 0.00 | 0.00 | 35 | 1010.0 |
| 20260509023354 | 64 | 86 | 4.0 | 5.0 | 0.00 | 0.00 | 0.00 | 36 | 1009.9 |
| 20260509022850 | 65 | 69 | 4.0 | 5.0 | 0.00 | 0.00 | 0.00 | 35 | 1009.9 |
| 20260509022347 | 66 | 46 | 5.0 | 6.0 | 0.00 | 0.00 | 0.00 | 34 | 1009.8 |
| 20260509021844 | 66 | 37 | 5.0 | 9.0 | 0.00 | 0.00 | 0.00 | 34 | 1009.9 |
| 20260509021341 | 67 | 44 | 7.0 | 9.0 | 0.00 | 0.00 | 0.00 | 34 | 1009.6 |
| 20260509020839 | 67 | 43 | 5.0 | 9.0 | 0.00 | 0.00 | 0.00 | 33 | 1009.6 |
| 20260509020337 | 68 | 37 | 5.0 | 10.0 | 0.00 | 0.00 | 0.00 | 32 | 1009.6 |
| 20260509015834 | 68 | 33 | 7.0 | 8.0 | 0.00 | 0.00 | 0.00 | 31 | 1009.7 |
| 20260509015332 | 69 | 20 | 6.0 | 9.0 | 0.00 | 0.00 | 0.00 | 31 | 1009.8 |
| 20260509014829 | 69 | 23 | 7.0 | 8.0 | 0.00 | 0.00 | 0.00 | 31 | 1009.5 |
| 20260509014326 | 69 | 24 | 5.0 | 8.0 | 0.00 | 0.00 | 0.00 | 31 | 1009.5 |
| 20260509013823 | 70 | 22 | 6.0 | 7.0 | 0.00 | 0.00 | 0.00 | 31 | 1009.2 |
| 20260509013319 | 71 | 36 | 5.0 | 8.0 | 0.00 | 0.00 | 0.00 | 30 | 1009.1 |
| 20260509012815 | 72 | 33 | 6.0 | 7.0 | 0.00 | 0.00 | 0.00 | 29 | 1009.3 |
| 20260509012312 | 73 | 26 | 4.0 | 7.0 | 0.00 | 0.00 | 0.00 | 28 | 1009.3 |
| 20260509011809 | 75 | 33 | 6.0 | 11.0 | 0.00 | 0.00 | 0.00 | 27 | 1009.1 |
| 20260509011307 | 76 | 44 | 7.0 | 14.0 | 0.00 | 0.00 | 0.00 | 26 | 1009.2 |
| 20260509010804 | 76 | 35 | 11.0 | 13.0 | 0.00 | 0.00 | 0.00 | 26 | 1009.0 |
| 20260509010301 | 77 | 37 | 7.0 | 13.0 | 0.00 | 0.00 | 0.00 | 25 | 1009.1 |
| 20260509005758 | 77 | 36 | 10.0 | 12.0 | 0.00 | 0.00 | 0.00 | 25 | 1008.9 |
| 20260509005256 | 77 | 25 | 10.0 | 15.0 | 0.00 | 0.00 | 0.00 | 25 | 1009.0 |
| 20260509004755 | 78 | 4 | 12.0 | 13.0 | 0.00 | 0.00 | 0.00 | 24 | 1008.8 |
| 20260509004253 | 78 | 22 | 6.0 | 17.0 | 0.00 | 0.00 | 0.00 | 24 | 1009.0 |
| 20260509003751 | 78 | 27 | 7.0 | 14.0 | 0.00 | 0.00 | 0.00 | 24 | 1008.8 |
| 20260509003248 | 79 | 28 | 10.0 | 11.0 | 0.00 | 0.00 | 0.00 | 24 | 1008.8 |
| 20260509002745 | 79 | 8 | 9.0 | 15.0 | 0.00 | 0.00 | 0.00 | 23 | 1008.9 |
| 20260509002243 | 80 | 20 | 6.0 | 9.0 | 0.00 | 0.00 | 0.00 | 22 | 1008.8 |
| 20260509001740 | 80 | 16 | 7.0 | 13.0 | 0.00 | 0.00 | 0.00 | 23 | 1008.9 |
| 20260509001236 | 80 | 0 | 10.0 | 17.0 | 0.00 | 0.00 | 0.00 | 23 | 1008.8 |
| 20260509000734 | 80 | 11 | 13.0 | 13.0 | 0.00 | 0.00 | 0.00 | 23 | 1008.9 |
| 20260509000233 | 80 | 12 | 12.0 | 17.0 | 0.00 | 0.00 | 0.00 | 23 | 1008.7 |
| 20260508235728 | 80 | 355 | 6.0 | 16.0 | 0.00 | 0.00 | 0.00 | 23 | 1008.6 |
| 20260508235224 | 80 | 358 | 10.0 | 15.0 | 0.00 | 0.00 | 0.00 | 23 | 1008.6 |
| 20260508234722 | 81 | 358 | 6.0 | 12.0 | 0.00 | 0.00 | 0.00 | 23 | 1008.6 |
| 20260508234218 | 81 | 24 | 7.0 | 14.0 | 0.00 | 0.00 | 0.00 | 22 | 1008.7 |
| 20260508233712 | 81 | 6 | 10.0 | 21.0 | 0.00 | 0.00 | 0.00 | 22 | 1008.8 |
| 20260508233209 | 81 | 315 | 5.0 | 13.0 | 0.00 | 0.00 | 0.00 | 23 | 1008.6 |
| 20260508232706 | 81 | 2 | 8.0 | 18.0 | 0.00 | 0.00 | 0.00 | 22 | 1008.7 |
| 20260508232203 | 81 | 6 | 15.0 | 17.0 | 0.00 | 0.00 | 0.00 | 22 | 1008.5 |
| 20260508231701 | 81 | 24 | 11.0 | 20.0 | 0.00 | 0.00 | 0.00 | 22 | 1008.6 |
| 20260508231157 | 81 | 356 | 9.0 | 14.0 | 0.00 | 0.00 | 0.00 | 23 | 1008.6 |
| 20260508230654 | 82 | 4 | 17.0 | 22.0 | 0.00 | 0.00 | 0.00 | 22 | 1008.6 |
| 20260508230150 | 81 | 344 | 9.0 | 20.0 | 0.00 | 0.00 | 0.00 | 23 | 1008.6 |
| 20260508225649 | 82 | 342 | 14.0 | 19.0 | 0.00 | 0.00 | 0.00 | 22 | 1008.6 |
| 20260508225144 | 82 | 354 | 9.0 | 20.0 | 0.00 | 0.00 | 0.00 | 22 | 1008.7 |
| 20260508224643 | 81 | 341 | 5.0 | 13.0 | 0.00 | 0.00 | 0.00 | 23 | 1008.5 |
| 20260508224140 | 81 | 10 | 5.0 | 16.0 | 0.00 | 0.00 | 0.00 | 22 | 1008.7 |
| 20260508223638 | 82 | 14 | 7.0 | 17.0 | 0.00 | 0.00 | 0.00 | 21 | 1008.5 |
| 20260508223134 | 81 | 341 | 5.0 | 16.0 | 0.00 | 0.00 | 0.00 | 23 | 1008.5 |
| 20260508222632 | 81 | 335 | 10.0 | 19.0 | 0.00 | 0.00 | 0.00 | 22 | 1008.7 |
| 20260508222129 | 82 | 22 | 6.0 | 21.0 | 0.00 | 0.00 | 0.00 | 21 | 1008.3 |
| 20260508221625 | 82 | 351 | 8.0 | 17.0 | 0.00 | 0.00 | 0.00 | 22 | 1008.2 |
| 20260508221121 | 81 | 342 | 10.0 | 14.0 | 0.00 | 0.00 | 0.00 | 22 | 1008.7 |
| 20260508220618 | 82 | 10 | 8.0 | 20.0 | 0.00 | 0.00 | 0.00 | 20 | 1008.3 |
| 20260508220114 | 82 | 11 | 16.0 | 26.0 | 0.00 | 0.00 | 0.00 | 21 | 1008.5 |
| 20260508215611 | 82 | 0 | 10.0 | 17.0 | 0.00 | 0.00 | 0.00 | 22 | 1008.5 |
| 20260508215107 | 83 | 10 | 15.0 | 23.0 | 0.00 | 0.00 | 0.00 | 22 | 1008.6 |
| 20260508214605 | 82 | 352 | 14.0 | 23.0 | 0.00 | 0.00 | 0.00 | 22 | 1008.1 |
| 20260508214101 | 83 | 0 | 10.0 | 22.0 | 0.00 | 0.00 | 0.00 | 22 | 1008.6 |
| 20260508213558 | 82 | 12 | 12.0 | 17.0 | 0.00 | 0.00 | 0.00 | 22 | 1008.6 |
| 20260508213054 | 82 | 9 | 18.0 | 24.0 | 0.00 | 0.00 | 0.00 | 22 | 1008.6 |
| 20260508212551 | 82 | 5 | 13.0 | 27.0 | 0.00 | 0.00 | 0.00 | 22 | 1008.8 |
| 20260508212047 | 82 | 25 | 12.0 | 24.0 | 0.00 | 0.00 | 0.00 | 21 | 1008.8 |
| 20260508211543 | 82 | 18 | 15.0 | 21.0 | 0.00 | 0.00 | 0.00 | 21 | 1008.7 |
| 20260508211039 | 82 | 14 | 19.0 | 26.0 | 0.00 | 0.00 | 0.00 | 22 | 1008.8 |
| 20260508210536 | 82 | 349 | 9.0 | 18.0 | 0.00 | 0.00 | 0.00 | 22 | 1008.7 |
| 20260508210034 | 82 | 3 | 15.0 | 27.0 | 0.00 | 0.00 | 0.00 | 22 | 1008.3 |
| 20260508205530 | 84 | 347 | 15.0 | 19.0 | 0.00 | 0.00 | 0.00 | 20 | 1008.7 |
| 20260508205026 | 82 | 14 | 12.0 | 28.0 | 0.00 | 0.00 | 0.00 | 21 | 1008.6 |
| 20260508204524 | 83 | 356 | 7.0 | 19.0 | 0.00 | 0.00 | 0.00 | 21 | 1008.7 |
| 20260508204019 | 82 | 14 | 10.0 | 22.0 | 0.00 | 0.00 | 0.00 | 20 | 1008.5 |
| 20260508203515 | 82 | 335 | 8.0 | 21.0 | 0.00 | 0.00 | 0.00 | 22 | 1008.9 |
| 20260508203011 | 83 | 0 | 11.0 | 23.0 | 0.00 | 0.00 | 0.00 | 21 | 1008.7 |
| 20260508202508 | 82 | 357 | 17.0 | 25.0 | 0.00 | 0.00 | 0.00 | 20 | 1008.9 |
| 20260508202006 | 82 | 12 | 7.0 | 20.0 | 0.00 | 0.00 | 0.00 | 20 | 1008.7 |
| 20260508201502 | 83 | 357 | 9.0 | 28.0 | 0.00 | 0.00 | 0.00 | 20 | 1008.7 |
| 20260508200959 | 82 | 332 | 5.0 | 17.0 | 0.00 | 0.00 | 0.00 | 21 | 1008.8 |
| 20260508200456 | 82 | 352 | 15.0 | 20.0 | 0.00 | 0.00 | 0.00 | 21 | 1008.9 |
| 20260508195950 | 82 | 21 | 14.0 | 21.0 | 0.00 | 0.00 | 0.00 | 20 | 1008.7 |
| 20260508195448 | 82 | 10 | 17.0 | 24.0 | 0.00 | 0.00 | 0.00 | 20 | 1008.9 |
| 20260508194944 | 83 | 3 | 13.0 | 19.0 | 0.00 | 0.00 | 0.00 | 20 | 1008.8 |
| 20260508194442 | 82 | 356 | 15.0 | 17.0 | 0.00 | 0.00 | 0.00 | 22 | 1008.8 |
| 20260508193939 | 82 | 27 | 11.0 | 12.0 | 0.00 | 0.00 | 0.00 | 22 | 1008.7 |
| 20260508193435 | 82 | 18 | 13.0 | 21.0 | 0.00 | 0.00 | 0.00 | 23 | 1009.1 |
| 20260508192932 | 82 | 334 | 15.0 | 18.0 | 0.00 | 0.00 | 0.00 | 24 | 1008.8 |
| 20260508192429 | 82 | 357 | 10.0 | 19.0 | 0.00 | 0.00 | 0.00 | 25 | 1008.7 |
| 20260508191926 | 81 | 306 | 8.0 | 19.0 | 0.00 | 0.00 | 0.00 | 26 | 1008.9 |
| 20260508191423 | 81 | 344 | 8.0 | 15.0 | 0.00 | 0.00 | 0.00 | 26 | 1008.9 |
| 20260508190920 | 81 | 358 | 12.0 | 18.0 | 0.00 | 0.00 | 0.00 | 25 | 1008.9 |
| 20260508190417 | 81 | 352 | 11.0 | 22.0 | 0.00 | 0.00 | 0.00 | 25 | 1008.9 |
| 20260508185913 | 79 | 328 | 5.0 | 15.0 | 0.00 | 0.00 | 0.00 | 26 | 1008.9 |
| 20260508185410 | 80 | 313 | 7.0 | 16.0 | 0.00 | 0.00 | 0.00 | 25 | 1009.0 |
| 20260508184908 | 79 | 356 | 6.0 | 13.0 | 0.00 | 0.00 | 0.00 | 26 | 1009.1 |
| 20260508184405 | 78 | 298 | 7.0 | 13.0 | 0.00 | 0.00 | 0.00 | 25 | 1009.1 |
| 20260508183901 | 79 | 331 | 7.0 | 17.0 | 0.00 | 0.00 | 0.00 | 25 | 1009.1 |
| 20260508183358 | 79 | 8 | 9.0 | 14.0 | 0.00 | 0.00 | 0.00 | 25 | 1009.2 |
| 20260508182848 | 79 | 297 | 4.0 | 11.0 | 0.00 | 0.00 | 0.00 | 25 | 1009.2 |
| 20260508182345 | 79 | 332 | 7.0 | 10.0 | 0.00 | 0.00 | 0.00 | 28 | 1009.1 |
| 20260508181840 | 79 | 4 | 10.0 | 10.0 | 0.00 | 0.00 | 0.00 | 29 | 1009.3 |
| 20260508181338 | 78 | 310 | 10.0 | 12.0 | 0.00 | 0.00 | 0.00 | 28 | 1009.2 |
| 20260508180835 | 78 | 302 | 5.0 | 9.0 | 0.00 | 0.00 | 0.00 | 29 | 1009.3 |
| 20260508180331 | 78 | 313 | 10.0 | 13.0 | 0.00 | 0.00 | 0.00 | 28 | 1009.3 |
| 20260508175828 | 77 | 335 | 3.0 | 13.0 | 0.00 | 0.00 | 0.00 | 25 | 1009.2 |
| 20260508175324 | 79 | 320 | 6.0 | 13.0 | 0.00 | 0.00 | 0.00 | 27 | 1009.2 |
| 20260508174823 | 76 | 313 | 5.0 | 12.0 | 0.00 | 0.00 | 0.00 | 29 | 1009.6 |
| 20260508174320 | 77 | 306 | 1.0 | 9.0 | 0.00 | 0.00 | 0.00 | 28 | 1009.3 |
| 20260508173816 | 78 | 346 | 4.0 | 8.0 | 0.00 | 0.00 | 0.00 | 29 | 1009.6 |
| 20260508173313 | 76 | 207 | 5.0 | 7.0 | 0.00 | 0.00 | 0.00 | 29 | 1009.7 |
| 20260508172809 | 75 | 348 | 5.0 | 7.0 | 0.00 | 0.00 | 0.00 | 29 | 1009.7 |
| 20260508172307 | 75 | 271 | 3.0 | 8.0 | 0.00 | 0.00 | 0.00 | 30 | 1009.7 |
| 20260508171803 | 77 | 321 | 7.0 | 10.0 | 0.00 | 0.00 | 0.00 | 29 | 1009.8 |
| 20260508171259 | 75 | 298 | 4.0 | 11.0 | 0.00 | 0.00 | 0.00 | 31 | 1009.7 |
| 20260508170755 | 75 | 241 | 2.0 | 4.0 | 0.00 | 0.00 | 0.00 | 30 | 1009.7 |
| 20260508170254 | 74 | 292 | 5.0 | 12.0 | 0.00 | 0.00 | 0.00 | 31 | 1009.8 |
| 20260508165750 | 74 | 264 | 5.0 | 14.0 | 0.00 | 0.00 | 0.00 | 33 | 1009.8 |
| 20260508165248 | 74 | 325 | 4.0 | 15.0 | 0.00 | 0.00 | 0.00 | 33 | 1010.0 |
| 20260508164743 | 73 | 311 | 4.0 | 8.0 | 0.00 | 0.00 | 0.00 | 33 | 1010.0 |
| 20260508164240 | 74 | 252 | 6.0 | 11.0 | 0.00 | 0.00 | 0.00 | 35 | 1010.0 |
| 20260508163738 | 73 | 273 | 8.0 | 13.0 | 0.00 | 0.00 | 0.00 | 34 | 1010.1 |
| 20260508163236 | 73 | 291 | 6.0 | 12.0 | 0.00 | 0.00 | 0.00 | 37 | 1010.1 |
| 20260508162731 | 73 | 247 | 14.0 | 20.0 | 0.00 | 0.00 | 0.00 | 38 | 1010.2 |
| 20260508162228 | 72 | 245 | 4.0 | 11.0 | 0.00 | 0.00 | 0.00 | 37 | 1010.1 |
| 20260508161725 | 71 | 269 | 3.0 | 11.0 | 0.00 | 0.00 | 0.00 | 39 | 1010.2 |
| 20260508161223 | 71 | 243 | 8.0 | 14.0 | 0.00 | 0.00 | 0.00 | 37 | 1010.3 |
| 20260508160721 | 71 | 240 | 13.0 | 16.0 | 0.00 | 0.00 | 0.00 | 40 | 1010.3 |
| 20260508160219 | 72 | 246 | 5.0 | 12.0 | 0.00 | 0.00 | 0.00 | 41 | 1010.3 |
| 20260508155715 | 71 | 248 | 9.0 | 18.0 | 0.00 | 0.00 | 0.00 | 41 | 1010.5 |
| 20260508155212 | 71 | 267 | 7.0 | 16.0 | 0.00 | 0.00 | 0.00 | 41 | 1010.3 |
| 20260508154709 | 70 | 245 | 10.0 | 18.0 | 0.00 | 0.00 | 0.00 | 42 | 1010.3 |
| 20260508154206 | 71 | 266 | 8.0 | 14.0 | 0.00 | 0.00 | 0.00 | 43 | 1010.2 |
| 20260508153702 | 70 | 256 | 7.0 | 14.0 | 0.00 | 0.00 | 0.00 | 44 | 1010.3 |
| 20260508153200 | 70 | 314 | 10.0 | 11.0 | 0.00 | 0.00 | 0.00 | 45 | 1010.5 |
| 20260508152656 | 69 | 224 | 14.0 | 20.0 | 0.00 | 0.00 | 0.00 | 47 | 1010.3 |
| 20260508152152 | 69 | 231 | 11.0 | 17.0 | 0.00 | 0.00 | 0.00 | 47 | 1010.5 |
| 20260508151648 | 68 | 260 | 12.0 | 16.0 | 0.00 | 0.00 | 0.00 | 50 | 1010.8 |
| 20260508151145 | 68 | 224 | 15.0 | 19.0 | 0.00 | 0.00 | 0.00 | 50 | 1010.7 |
| 20260508150642 | 67 | 220 | 9.0 | 18.0 | 0.00 | 0.00 | 0.00 | 51 | 1010.5 |
| 20260508150139 | 66 | 228 | 9.0 | 20.0 | 0.00 | 0.00 | 0.00 | 52 | 1010.6 |
| 20260508145635 | 66 | 229 | 8.0 | 18.0 | 0.00 | 0.00 | 0.00 | 53 | 1010.7 |
| 20260508145131 | 66 | 225 | 11.0 | 15.0 | 0.00 | 0.00 | 0.00 | 54 | 1010.5 |
| 20260508144629 | 65 | 221 | 13.0 | 15.0 | 0.00 | 0.00 | 0.00 | 55 | 1010.6 |
| 20260508144126 | 64 | 230 | 5.0 | 13.0 | 0.00 | 0.00 | 0.00 | 56 | 1010.6 |
| 20260508143624 | 64 | 221 | 8.0 | 14.0 | 0.00 | 0.00 | 0.00 | 56 | 1010.9 |
| 20260508143120 | 63 | 201 | 9.0 | 13.0 | 0.00 | 0.00 | 0.00 | 58 | 1010.6 |
| 20260508142617 | 62 | 199 | 9.0 | 18.0 | 0.00 | 0.00 | 0.00 | 59 | 1010.9 |
| 20260508142114 | 63 | 197 | 4.0 | 14.0 | 0.00 | 0.00 | 0.00 | 58 | 1010.9 |
| 20260508141610 | 62 | 223 | 10.0 | 17.0 | 0.00 | 0.00 | 0.00 | 59 | 1010.7 |
| 20260508141108 | 63 | 215 | 14.0 | 20.0 | 0.00 | 0.00 | 0.00 | 58 | 1010.8 |
| 20260508140605 | 62 | 214 | 11.0 | 20.0 | 0.00 | 0.00 | 0.00 | 59 | 1010.7 |
| 20260508135557 | 61 | 219 | 18.0 | 20.0 | 0.00 | 0.00 | 0.00 | 61 | 1010.8 |
| 20260508135053 | 61 | 229 | 14.0 | 15.0 | 0.00 | 0.00 | 0.00 | 61 | 1011.0 |
| 20260508134550 | 60 | 230 | 8.0 | 12.0 | 0.00 | 0.00 | 0.00 | 64 | 1011.1 |
| 20260508134047 | 59 | 225 | 7.0 | 15.0 | 0.00 | 0.00 | 0.00 | 64 | 1011.2 |
| 20260508133544 | 59 | 210 | 4.0 | 13.0 | 0.00 | 0.00 | 0.00 | 66 | 1010.9 |
| 20260508133041 | 59 | 221 | 8.0 | 15.0 | 0.00 | 0.00 | 0.00 | 65 | 1010.8 |
| 20260508132539 | 58 | 222 | 7.0 | 11.0 | 0.00 | 0.00 | 0.00 | 67 | 1010.9 |
| 20260508132035 | 56 | 223 | 9.0 | 10.0 | 0.00 | 0.00 | 0.00 | 69 | 1010.6 |
| 20260508131531 | 56 | 220 | 4.0 | 9.0 | 0.00 | 0.00 | 0.00 | 69 | 1010.8 |
| 20260508131028 | 56 | 217 | 3.0 | 8.0 | 0.00 | 0.00 | 0.00 | 70 | 1010.7 |
| 20260508130525 | 55 | 202 | 3.0 | 7.0 | 0.00 | 0.00 | 0.00 | 72 | 1010.7 |
| 20260508130021 | 54 | 214 | 4.0 | 7.0 | 0.00 | 0.00 | 0.00 | 74 | 1011.1 |
| 20260508125511 | 53 | 68 | 1.0 | 3.0 | 0.00 | 0.00 | 0.00 | 75 | 1011.2 |
| 20260508125009 | 53 | 18 | 3.0 | 4.0 | 0.00 | 0.00 | 0.00 | 74 | 1010.8 |
| 20260508124507 | 53 | 0 | 1.0 | 2.0 | 0.00 | 0.00 | 0.00 | 74 | 1010.8 |
| 20260508124004 | 53 | 89 | 0.0 | 5.0 | 0.00 | 0.00 | 0.00 | 74 | 1010.5 |
| 20260508123503 | 52 | 117 | 4.0 | 6.0 | 0.00 | 0.00 | 0.00 | 74 | 1010.3 |
| 20260508122959 | 52 | 111 | 3.0 | 6.0 | 0.00 | 0.00 | 0.00 | 74 | 1010.3 |
| 20260508122455 | 51 | 136 | 2.0 | 6.0 | 0.00 | 0.00 | 0.00 | 75 | 1010.3 |
| 20260508121952 | 51 | 139 | 3.0 | 6.0 | 0.00 | 0.00 | 0.00 | 76 | 1010.0 |
| 20260508121451 | 51 | 168 | 4.0 | 6.0 | 0.00 | 0.00 | 0.00 | 76 | 1009.8 |
| 20260508120948 | 51 | 183 | 3.0 | 5.0 | 0.00 | 0.00 | 0.00 | 76 | 1009.8 |
| 20260508120446 | 51 | 168 | 4.0 | 9.0 | 0.00 | 0.00 | 0.00 | 76 | 1009.8 |
| 20260508115944 | 51 | 177 | 3.0 | 7.0 | 0.00 | 0.00 | 0.00 | 76 | 1010.1 |
| 20260508115441 | 51 | 171 | 5.0 | 7.0 | 0.00 | 0.00 | 0.00 | 75 | 1009.9 |
| 20260508114937 | 51 | 175 | 3.0 | 6.0 | 0.00 | 0.00 | 0.00 | 75 | 1009.9 |
| 20260508114435 | 51 | 152 | 3.0 | 8.0 | 0.00 | 0.00 | 0.00 | 75 | 1009.9 |
| 20260508113931 | 51 | 182 | 2.0 | 6.0 | 0.00 | 0.00 | 0.00 | 74 | 1010.0 |
| 20260508113429 | 52 | 211 | 5.0 | 11.0 | 0.00 | 0.00 | 0.00 | 74 | 1010.0 |
| 20260508112926 | 53 | 201 | 6.0 | 10.0 | 0.00 | 0.00 | 0.00 | 73 | 1010.0 |
| 20260508112422 | 53 | 213 | 7.0 | 10.0 | 0.00 | 0.00 | 0.00 | 72 | 1010.0 |
| 20260508111919 | 53 | 215 | 4.0 | 10.0 | 0.00 | 0.00 | 0.00 | 72 | 1010.1 |
| 20260508111416 | 53 | 220 | 7.0 | 11.0 | 0.00 | 0.00 | 0.00 | 72 | 1010.1 |
| 20260508110913 | 53 | 229 | 7.0 | 13.0 | 0.00 | 0.00 | 0.00 | 72 | 1010.0 |
| 20260508110411 | 53 | 221 | 9.0 | 13.0 | 0.00 | 0.00 | 0.00 | 71 | 1010.0 |
| 20260508105910 | 54 | 228 | 8.0 | 12.0 | 0.00 | 0.00 | 0.00 | 71 | 1010.1 |
| 20260508105407 | 53 | 214 | 8.0 | 10.0 | 0.00 | 0.00 | 0.00 | 71 | 1010.1 |
| 20260508104904 | 54 | 223 | 7.0 | 11.0 | 0.00 | 0.00 | 0.00 | 70 | 1010.0 |
| 20260508104401 | 54 | 218 | 10.0 | 12.0 | 0.00 | 0.00 | 0.00 | 70 | 1010.1 |
| 20260508103858 | 54 | 214 | 6.0 | 13.0 | 0.00 | 0.00 | 0.00 | 69 | 1010.3 |
| 20260508103355 | 55 | 223 | 9.0 | 14.0 | 0.00 | 0.00 | 0.00 | 68 | 1010.2 |
| 20260508102853 | 55 | 215 | 6.0 | 12.0 | 0.00 | 0.00 | 0.00 | 69 | 1010.2 |
| 20260508102351 | 55 | 222 | 6.0 | 11.0 | 0.00 | 0.00 | 0.00 | 68 | 1010.3 |
| 20260508101848 | 55 | 225 | 9.0 | 14.0 | 0.00 | 0.00 | 0.00 | 67 | 1010.3 |
| 20260508101345 | 55 | 226 | 12.0 | 13.0 | 0.00 | 0.00 | 0.00 | 67 | 1010.3 |
| 20260508100842 | 55 | 229 | 8.0 | 16.0 | 0.00 | 0.00 | 0.00 | 66 | 1010.1 |
| 20260508100341 | 55 | 226 | 11.0 | 17.0 | 0.00 | 0.00 | 0.00 | 66 | 1010.3 |
| 20260508095836 | 56 | 224 | 11.0 | 20.0 | 0.00 | 0.00 | 0.00 | 65 | 1010.3 |
| 20260508095334 | 56 | 220 | 10.0 | 17.0 | 0.00 | 0.00 | 0.00 | 65 | 1010.2 |
| 20260508094831 | 56 | 228 | 11.0 | 22.0 | 0.00 | 0.00 | 0.00 | 64 | 1010.2 |
| 20260508094328 | 56 | 217 | 10.0 | 20.0 | 0.00 | 0.00 | 0.00 | 64 | 1010.1 |
| 20260508093825 | 56 | 209 | 12.0 | 21.0 | 0.00 | 0.00 | 0.00 | 64 | 1010.2 |
| 20260508093322 | 56 | 212 | 16.0 | 19.0 | 0.00 | 0.00 | 0.00 | 64 | 1010.6 |
| 20260508092820 | 55 | 223 | 11.0 | 17.0 | 0.00 | 0.00 | 0.00 | 64 | 1010.5 |
| 20260508092318 | 56 | 222 | 12.0 | 18.0 | 0.00 | 0.00 | 0.00 | 63 | 1010.6 |
| 20260508091815 | 55 | 219 | 8.0 | 15.0 | 0.00 | 0.00 | 0.00 | 62 | 1010.3 |
| 20260508091311 | 55 | 219 | 8.0 | 15.0 | 0.00 | 0.00 | 0.00 | 62 | 1010.5 |
| 20260508090810 | 55 | 209 | 6.0 | 14.0 | 0.00 | 0.00 | 0.00 | 62 | 1010.8 |
| 20260508090308 | 55 | 216 | 7.0 | 14.0 | 0.00 | 0.00 | 0.00 | 61 | 1010.8 |
| 20260508085803 | 56 | 208 | 9.0 | 17.0 | 0.00 | 0.00 | 0.00 | 61 | 1010.7 |
| 20260508085300 | 56 | 219 | 11.0 | 14.0 | 0.00 | 0.00 | 0.00 | 61 | 1010.5 |
| 20260508084756 | 56 | 213 | 9.0 | 20.0 | 0.00 | 0.00 | 0.00 | 60 | 1010.7 |
| 20260508084254 | 56 | 219 | 8.0 | 16.0 | 0.00 | 0.00 | 0.00 | 59 | 1010.8 |
| 20260508083751 | 55 | 205 | 6.0 | 16.0 | 0.00 | 0.00 | 0.00 | 59 | 1010.7 |
| 20260508083249 | 56 | 210 | 9.0 | 19.0 | 0.00 | 0.00 | 0.00 | 58 | 1010.6 |
| 20260508082748 | 56 | 202 | 9.0 | 11.0 | 0.00 | 0.00 | 0.00 | 58 | 1010.5 |